www.pogodaiklimat.ru

Погода и климат >> Архив погоды >> Россия >> Красноярский край >> Чемдальск


ПОГОДА в Чемдальске

  • Прогноз погоды в Чемдальске
  • Монитор погоды в Чемдальске

АРХИВ ПОГОДЫ в Чемдальске

Время (UTC), дата Ветер
(напр.,м/с)
 
Видим.   Явления Облачность Т
(С)
Тd
(С)
f
(%)
Тe
(С)
Тes
(С)
Комфортность P
(гПа)
Po
(гПа)
Тmin
(С)
Tmax
(С)
R
(мм)
R24
(мм)
S
(см)
09 15.02 З 2 20 км слаб. снег 10/0
[As op]
-8.9 -12.8 73 -13 -13 1028.7 992.0
12 15.02 Ю 2 н/о слаб. снег 10/0
[As op]
-8.1 -11.7 75 -12 -12 1026.6 990.1 -8.1 0.3
15 15.02 ЮЗ 2 н/о слаб. снег 10/0
[As op]
-7.1 -10.4 77 -11 -11 1025.7 989.3
21 15.02 ЮЗ 2 н/о {снег} 10/0
[As op]
-6.8 -10.5 75 -11 -11 1023.1 986.9
00 16.02 З 2 н/о {снег} 10/10 1000 м
[Sc]
-7.0 -10.3 77 -11 -11 1022.7 986.5 -8.3 0.0 57
03 16.02 З 2 20 км 10/10 1000 м
[Sc]
-7.0 -10.8 74 -11 -11 1022.9 986.7
06 16.02 З 2 50 км 10/0
[Ci fib]
-5.0 -10.7 64 -9 -9 1022.7 986.7
09 16.02 ЮЗ 2 50 км 10/0
[Ac trans Ci fib]
-5.0 -10.4 66 -9 -9 1021.2 985.3
12 16.02 штиль 0 н/о 10/0
[Ci fib]
-8.4 -10.7 83 -9 -9 1020.1 983.9 -4.1
15 16.02 Ю 2 н/о 10/0 2000 м
[As op]
-5.5 -8.9 77 -10 -10 1018.6 982.7
18 16.02 ЮЗ 1 н/о 8/0
[Ci fib]
-8.0 -9.8 87 -10 -10 1017.5 981.3
21 16.02 ЮЗ 2 н/о 10/0
[Ac As]
-6.7 -8.7 86 -11 -11 1013.0 977.3
00 17.02 ЮЗ 2 н/о 10/10 1000 м
[Sc]
-5.6 -8.6 79 -10 -10 1010.1 974.6 -8.5 57
03 17.02 ЮЗ 2 4000 м слаб. снег 10 баллов -5.3 -7.4 85 -10 -10 1010.3 974.7
06 17.02 З 3 50 км позёмок {снег} 10/10 600 м
[Cb cap]
-4.0 -9.0 68 -9 -9 1010.1 974.7
09 17.02 З 3 10 км слаб. ливневой снег 10 баллов -4.8 -8.7 74 -10 -10 1010.2 974.7
12 17.02 З 2 н/о в посл. час ливневой снег {метель} 8/8 600 м
[Sc]
-6.0 -9.5 76 -10 -10 1011.2 975.5 -4.0 0.6
15 17.02 штиль 0 н/о ясно -15.1 -17.0 85 -15 -15 1014.4 977.3
18 17.02 штиль 0 н/о 8/8 1000 м
[Sc]
-18.6 -20.5 85 -19 -19 1016.3 978.7
21 17.02 штиль 0 н/о 10/0
[Cs]
-20.7 -22.6 85 -21 -21 1014.7 976.8
00 18.02 штиль 0 н/о 10/0
[Cs]
-22.3 -24.2 84 -22 -22 1014.9 976.8 -22.3 57
03 18.02 штиль 0 50 км 10/0
[As trans]
-11.7 -13.7 85 -12 -12 1013.9 977.3 -22.6
06 18.02 Ю 2 20 км слаб. снег 10/0 2000 м
[As trans]
-4.6 -8.2 76 -9 -9 1010.2 974.7
09 18.02 ЮЗ 1 20 км слаб. снег 10/0
[As trans]
-3.3 -6.4 79 -5 -5 1008.5 973.3
12 18.02 Ю 2 н/о слаб. снег 10/0
[As op]
-3.5 -6.0 83 -8 -8 1007.3 972.2 -3.0 0.7
15 18.02 ЮВ 2 н/о слаб. снег 10/0 1000 м
[As op]
-2.9 -4.2 91 -7 -7 1007.1 972.0
18 18.02 Ю 1 н/о {снег} 10/0
[Cs]
-3.5 -4.9 90 -6 -6 1007.2 972.0
21 18.02 штиль 0 н/о 10/0
[As trans]
-4.8 -6.1 91 -6 -6 1005.3 970.0
00 19.02 штиль 0 н/о 10/0
[As trans]
-5.1 -6.8 88 -6 -6 1008.2 972.7 -5.3 1 57
03 19.02 ЮЗ 1 20 км слаб. снег 10 баллов -3.9 -5.7 87 -6 -6 1011.4 976.0
06 19.02 ЮЗ 1 50 км {снег} 10/6 600 м
[Cb cap Cs]
-2.6 -5.6 80 -5 -5 1012.6 977.3
09 19.02 З 1 20 км слаб. снег 10 баллов -2.4 -5.4 80 -5 -5 1012.6 977.3
12 19.02 ЮЗ 1 н/о слаб. снег 10/0
[As trans]
-3.5 -4.6 92 -6 -6 1013.7 978.4 -1.9 0.6
15 19.02 штиль 0 н/о {снег} 10/0
[Ac trans]
-6.1 -8.1 86 -7 -7 1017.2 981.3
18 19.02 ЮЗ 1 н/о слаб. снег 10/0
[Cs]
-6.5 -8.2 88 -9 -9 1001.7 981.5
21 19.02 ЮЗ 1 н/о слаб. снег 10/0
[Cs]
-6.9 -8.6 88 -9 -9 1018.7 982.6
00 20.02 штиль 0 н/о слаб. снег 10/0
[As op]
-6.4 -7.6 91 -7 -7 1019.6 983.6 -7.3 1 58
03 20.02 З 3 20 км слаб. снег 10/0
[Cs]
-3.7 -4.8 92 -9 -9 1021.0 985.3
06 20.02 З 3 50 км позёмок 6/6 600 м
[Cb cap]
-2.2 -6.9 70 -7 -6 1022.3 986.7
09 20.02 ЮВ 3 20 км слаб. ливневой снег {метель} 10/8 600 м
[Cb cap Cs]
-1.6 -4.6 80 -6 -6 1022.2 986.7
12 20.02 Ю 1 н/о слаб. ливневой снег {метель} 10/10 600 м
[Cb cap]
-3.6 -5.4 87 -6 -6 1022.5 986.7 -1.6 1
15 20.02 ЮЗ 2 н/о {ливн. осадки} 10/10 600 м
[Cb cap]
-2.5 -4.4 87 -7 -7 1020.9 985.3
18 20.02 З 1 н/о слаб. ливневой снег 10/10 600 м
[Cb cap]
-2.5 -4.7 85 -5 -5 1022.3 986.7
00 21.02 штиль 0 н/о {ливн. осадки} 10/0
[Cs]
-8.7 -9.0 98 -9 -9 1022.2 985.8 -8.7 0.3 59
03 21.02 ЮВ 1 20 км слаб. ливневой снег 10 баллов -6.1 -6.9 94 -9 -9 1022.8 986.7
06 21.02 Ю 1 50 км 10 баллов -0.2 -3.2 80 -2 -2 1022.0 986.7
09 21.02 З 1 50 км 10 баллов +0.6 -2.3 81 -1 -1 1021.9 986.7
12 21.02 ЮВ 1 н/о 10/0
[Cs]
-2.6 -5.6 80 -5 -5 1021.2 985.7 +2.4 0.3
15 21.02 штиль 0 н/о 10 баллов -4.0 -6.9 80 -5 -5 1021.1 985.3
00 22.02 ЮЗ 1 н/о {снег} 10/10
[Cb cap]
-2.4 -3.3 94 -5 -5 1019.3 983.9 -4.4 0.5 59
03 22.02 З 2 4000 м слаб. ливневой снег 10 баллов -1.1 -3.5 84 -5 -5 1020.7 985.3
06 22.02 З 4 50 км позёмок 9 баллов -1.0 -9.4 53 -6 -6 1022.1 986.7

 

Местоположение метеостанции Чемдальск (Красноярский край, Россия): широта 59.63 долгота 103.30 высота над уровнем моря 282 м.

В архиве по умолчанию представлена погода в Чемдальске за последнюю неделю. Архивные данные за месяц целиком и за предыдущие месяцы, начиная с января 2011 года, Вы можете получить, выбрав интересующий диапазон дат из раскрывающегося списка и нажав кнопку "Ввод!".


*Определитесь, кто Вы:
робот инопланетянин человек

Внимание! Время в таблицах - всемирное. Для получения местного времени необходимо прибавить поправку, которая равна 7 ч.

Смотрите также архив погоды в соседних городах и на ближайших метеорологических станциях:

Погода в Ванаваре (Эвенкия, Россия) (96 км)
Погода в Ике (Иркутская область, Россия) (163 км)
Погода в Усть-Илимске (Иркутская область, Россия) (188 км)
Погода в Токме (Иркутская область, Россия) (208 км)
Погода в Стрелке-Чуне (Эвенкия, Россия) (237 км)
Погода в Муторае (Эвенкия, Россия) (247 км)
Погода в Кодинске (Красноярский край, Россия) (260 км)
Погода в Преображенке (Иркутская область, Россия) (267 км)
Погода в Новой Игирме (Иркутская область, Россия) (282 км)
Погода в Ершово (Иркутская область, Россия) (285 км)

Пояснения к столбцам:

Ветер - указаны скорость ветра в м/с - средняя за 10 мин, порывы в срок и между сроками (в фигурных скобках) и направление, откуда дует ветер: С - северный, СВ - северо-восточный, В - восточный, ЮВ - юго-восточный, Ю - южный, ЮЗ - юго-западный, З - западный, СЗ - северо-западный.
Видимость - горизонтальная дальность видимости в метрах или километрах. При видимости от 1 до 10 км при отсутствии осадков обычно наблюдается дымка, при ухудшении видимости до 1 км и менее - туман. В сухую погоду видимость может ухудшаться дымом, пылью или мглою.
Явления - указаны атмосферные явления, наблюдавшиеся в срок или в последний час перед сроком; фигурными скобками обозначены явления, наблюдавшиеся между сроками (за 1-3 часа до срока); квадратными скобками обозначены град или гололедные отложения с указанием их диаметра в мм.
Облачность - указаны через наклонную черту общая и нижняя облачность в баллах и высота нижней границы облаков в метрах; квадратными скобками обозначены формы облаков: Ci - перистые, Cs - перисто-слоистые, Cc - перисто-кучевые, Ac - высококучевые, As - высокослоистые, Sc - слоисто-кучевые, Ns - слоисто-дождевые, Cu - кучевые, Cb - кучево-дождевые. Подробнее классификацию облаков см. в Атласе облаков (PDF).
T - Температура воздуха - температура, измеренная на высоте 2 м над землей.
Td - Температура точки росы - температура, при понижении до которой содержащийся в воздухе водяной пар достигнет насыщения.
f - Относительная влажность воздуха - влажноcть воздуха, измеренная на высоте 2 м над землей.
Te - Эффективная температура - температура, которую ощущает одетый по сезону человек в тени. Характеристика душности погоды. При расчете учитывается влияние влажности воздуха и скорости ветра на теплоощущения человека.
Tes - Эффективная температура на солнце - температура, которую ощущает человек, с поправкой на солнечный нагрев. Характеристика знойности погоды. Зависит от высоты солнца над горизонтом, облачности и скорости ветра. Ночью, в пасмурную погоду, а также при ветре 12 м/с и более поправка равна нулю.
P - Атмосферное давление - приведенное к уровню моря атмосферное давление.
Po - Атмосферное давление - измеренное на уровне метеостанции атмосферное давление.
Tmin - Минимальная температура - минимум температуры воздуха на высоте 2 м над землей.
Tmax - Максимальная температура - максимум температуры воздуха на высоте 2 м над землей.
R - Количество осадков - Количество выпавших осадков за период времени, мм. При наведении курсора мыши на число - период времени, за который выпало указанное количество осадков.
R24 - Количество осадков - Количество выпавших осадков за 24 часа, мм.
S - Снежный покров - Высота снежного покрова, см. При наведении курсора мыши на число - состояние снежного покрова и степень покрытия местности в баллах.